Home   Weather   Eupen   Past weeks

Flag for Belgium Past Weather in Eupen, Belgium — Yesterday and Last 2 Weeks

Now
22 °F

Clear.


Feels Like: 22 °F
Forecast: 10 / 25 °F
Wind: 1 mph from Southwest

Location: Spa / La Sauveniere

Current Time: Jan 18, 2017 at 7:33:16 pm

Latest Report: Jan 18, 2017 at 6:00 pm


Visibility: 16 mi

Pressure: 30.66 "Hg

Humidity: 82%

Dew Point: 17 °F

Location of EupenLocation

Past Weather in Eupen — Graph

°F

Eupen Temperature Yesterday

Maximum temperature yesterday: 25 °F (at 3:00 pm)
Minimum temperature yesterday: 15 °F (at 8:00 am)
Average temperature yesterday: 20 °F

High & Low Weather Summary for the Past Weeks

 TemperatureHumidityPressure
High41 °F (Jan 11, 4:00 pm)100% (Jan 8, 2:00 am)30.77 "Hg (Jan 8, 2:00 am)
Low15 °F (Jan 17, 8:00 am)63% (Jan 6, 3:00 pm)28.97 "Hg (Jan 13, 1:00 am)
Average29 °F92%30.21 "Hg
* Reported Jan 3 6:00 pm — Jan 18 6:00 pm, Eupen, Weather by CustomWeather, © 2017

Note: Actual official high and low records may vary slightly from our data, if they occured in-between our weather recording intervals... More about our weather records

Advertising

Eupen Weather History for the Previous 24 Hours

Scroll right to see more
 ConditionsComfort  
Time TempWeatherWind HumidityBarometerVisibility
6:00 pm
Wed, Jan 18
22 °FClear.1 mph82%30.66 "Hg16 mi
5:00 pm23 °FSunny.N/A82%30.67 "Hg17 mi
4:00 pm26 °FSunny.1 mph79%30.66 "Hg12 mi
3:00 pm28 °FSunny.2 mph75%30.64 "HgN/A
2:00 pm30 °FSunny.No wind78%30.64 "Hg14 mi
1:00 pm24 °FSunny.2 mph78%30.67 "Hg12 mi
12:00 pm23 °FSunny.1 mph77%30.67 "Hg15 mi
11:00 am23 °FSunny.2 mph70%30.68 "Hg22 mi
10:00 am20 °FSunny.9 mph79%30.67 "Hg19 mi
9:00 am20 °FSunny.9 mph82%30.67 "Hg19 mi
8:00 am20 °FClear.7 mph81%30.66 "Hg25 mi
7:00 am20 °FClear.3 mph82%30.66 "Hg22 mi
6:00 am20 °FClear.N/A81%30.65 "Hg22 mi
5:00 am20 °FClear.N/A80%30.66 "Hg28 mi
4:00 am20 °FClear.3 mph80%30.66 "Hg25 mi
3:00 am20 °FClear.3 mph83%30.66 "Hg13 mi
2:00 am20 °FClear.2 mph85%30.67 "Hg11 mi
1:00 am19 °FClear.3 mph85%30.67 "Hg11 mi
12:00 am18 °FClear.3 mph88%30.68 "Hg9 mi
11:00 pm
Tue, Jan 17
19 °FClear.2 mph91%30.68 "Hg7 mi
10:00 pm19 °FClear.2 mph91%30.68 "Hg7 mi
9:00 pm19 °FClear.3 mph90%30.67 "Hg6 mi
8:00 pm19 °FClear.1 mph90%30.67 "Hg6 mi
7:00 pm21 °FClear.3 mph89%30.66 "Hg7 mi
Weather by CustomWeather, © 2017

See weather overviewHow to use our weather pages